Weather observations for the past three days for
Cambridge Municipal Airport
Imperial (Metric)
Date Time (cdt) Wind (mph) Vis. (mi.) Weather Sky Cond. Temperature (ºF) Relative Humidity Wind Chill (°F) Heat Index (°F) Pressure Precipitation (in)
Air Dwpt 6 hour altimeter (in) sea level (mb) 1 hr 3 hr 6 hr
Max. Min.
22 17:35 Calm 7.00 Thunderstorm SCT050 SCT080 66.2 62.6 88% 29.95 0.0
22 17:15 Calm 10.00 Thunderstorm Light Rain SCT050 BKN060 BKN070 66.2 62.6 88% 29.96 0.0
22 16:55 Calm 10.00 Light Rain SCT015 BKN065 OVC085 66.2 62.6 88% 29.98 0.0 0.18
22 16:35 NW 6 4.00 Thunderstorm Heavy Rain SCT008 BKN050 OVC060 66.2 62.6 88% 29.95 0.0 0.16
22 16:15 SW 8 G 20 7.00 Thunderstorm Light Rain in Vicinity SCT038 BKN048 BKN060 68 62.6 83% 29.96 0.0 0.06
22 15:55 S 7 10.00 Partly Cloudy SCT044 SCT060 SCT075 69.8 64.4 83% 29.95 0.0 0.5
22 15:35 SE 5 7.00 Thunderstorm in Vicinity SCT011 SCT075 BKN095 66.2 62.6 88% 29.95 0.0 0.5
22 15:15 SW 3 G 20 2.50 Thunderstorm Rain in Vicinity SCT001 BKN011 OVC090 66.2 60.8 83% 29.99 0.0 0.49
22 14:55 NW 18 G 28 5.00 Heavy Rain SCT012 SCT028 BKN039 69.8 62.6 78% 29.98 0.0 0.07
22 14:35 SW 10 10.00 Thunderstorm in Vicinity SCT041 78.8 68 70% 81 29.96 0.0
22 14:15 SW 17 10.00 Thunderstorm SCT041 SCT049 82.4 69.8 66% 86 29.97 0.0
22 13:55 S 13 10.00 Partly Cloudy SCT040 SCT049 82.4 71.6 70% 87 29.96 0.0
22 13:35 SW 9 10.00 Partly Cloudy SCT038 SCT047 80.6 69.8 70% 84 29.98 0.0
22 13:25 SW 10 10.00 NULL NULL 82.4 69.8 66% 86 29.99 0.0
22 12:55 SW 8 10.00 Partly Cloudy SCT045 SCT060 82.4 69.8 66% 86 30 0.0
22 12:38 SW 8 10.00 NULL NULL 82.4 69.8 66% 86 30 0.0
22 11:55 SW 7 10.00 Partly Cloudy SCT038 80.6 69.8 70% 84 30.01 0.0
22 11:35 W 6 10.00 Fair CLR 80.6 69.8 70% 84 30.02 0.0
22 11:15 SW 6 10.00 Fair CLR 78.8 69.8 74% 81 30.02 0.0
22 10:55 W 7 10.00 NULL NULL 78.8 69.8 74% 81 30.02 0.0
22 10:35 W 6 10.00 Fair CLR 78.8 68 70% 81 30.03 0.0
22 10:15 S 6 10.00 Fair CLR 77 66.2 69% 79 30.03 0.0
22 09:55 SW 6 10.00 Fair CLR 75.2 66.2 74% 77 30.03 0.0
22 09:35 SW 5 10.00 Partly Cloudy SCT070 73.4 66.2 78% 30.04 0.0
22 09:15 SW 3 10.00 Partly Cloudy SCT070 73.4 64.4 74% 30.05 0.0
22 08:55 SW 3 10.00 Partly Cloudy SCT050 SCT070 71.6 64.4 78% 30.06 0.0
22 08:35 SW 5 10.00 Partly Cloudy SCT050 71.6 64.4 78% 30.06 0.0
22 08:15 SW 3 10.00 Fair CLR 69.8 64.4 83% 30.05 0.0
22 07:55 S 3 10.00 Partly Cloudy SCT050 68 64.4 88% 30.05 0.0
22 07:35 SW 3 7.00 Fair CLR 66.2 62.6 88% 30.05 0.0
22 07:15 Calm 5.00 Fog/Mist CLR 66.2 62.6 88% 30.05 0.0
22 06:55 Calm 4.00 Fog/Mist CLR 64.4 62.6 94% 30.05 0.0
22 06:35 Calm 3.00 Fog/Mist CLR 64.4 62.6 94% 30.06 0.0
22 06:15 Calm 0.75 Fog/Mist OVC001 64.4 62.6 94% 30.06 0.0
22 05:55 Calm 0.25 Fog OVC001 64.4 60.8 88% 30.06 0.0
22 05:35 Calm 0.50 Fog OVC001 64.4 62.6 94% 30.06 0.0
22 05:15 Calm 2.50 Fog/Mist OVC001 64.4 62.6 94% 30.06 0.0
22 04:55 Calm 0.50 Fog BKN001 64.4 60.8 88% 30.06 0.0
22 04:35 Calm 3.00 Fog/Mist CLR 64.4 60.8 88% 30.06 0.0
22 04:15 Calm 4.00 Fog/Mist CLR 64.4 60.8 88% 30.06 0.0
22 03:55 Calm 1.00 Fog/Mist CLR 62.6 60.8 94% 30.07 0.0
22 03:35 Calm 4.00 Fog/Mist CLR 64.4 60.8 88% 30.07 0.0
22 03:15 Calm 4.00 Fog/Mist CLR 64.4 62.6 94% 30.07 0.0
22 02:55 Calm 5.00 Fog/Mist CLR 64.4 60.8 88% 30.07 0.0
22 02:35 Calm 7.00 Fair CLR 64.4 60.8 88% 30.08 0.0
22 02:15 Calm 10.00 Fair CLR 66.2 62.6 88% 30.09 0.0
22 01:55 Calm 10.00 Fair CLR 66.2 62.6 88% 30.09 0.0
22 01:35 S 3 10.00 Fair CLR 66.2 62.6 88% 30.08 0.0
22 01:15 S 5 10.00 Fair CLR 66.2 62.6 88% 30.08 0.0
22 00:55 S 5 10.00 Fair CLR 68 62.6 83% 30.09 0.0
22 00:35 Calm 10.00 Fair CLR 69.8 64.4 83% 30.1 0.0
22 00:15 Calm 10.00 Mostly Cloudy BKN095 69.8 64.4 83% 30.1 0.0
21 23:55 Calm 10.00 NULL NULL 69.8 64.4 83% 30.11 0.0
21 23:35 Calm 10.00 Overcast BKN065 OVC080 71.6 64.4 78% 30.1 0.0
21 23:15 Calm 10.00 Overcast SCT040 OVC055 71.6 64.4 78% 30.1 0.0
21 22:55 S 3 10.00 Mostly Cloudy SCT040 BKN060 BKN090 71.6 64.4 78% 30.1 0.0
21 22:35 S 3 10.00 Mostly Cloudy SCT042 BKN060 71.6 64.4 78% 30.1 0.0
21 22:15 Calm 10.00 Partly Cloudy SCT040 SCT080 71.6 64.4 78% 30.1 0.0
21 21:55 Calm 10.00 Overcast BKN038 BKN050 OVC080 73.4 66.2 78% 30.1 0.0
21 21:35 Calm 10.00 Overcast BKN036 OVC046 75.2 66.2 74% 77 30.09 0.0
21 21:15 Calm 10.00 Overcast BKN033 OVC045 75.2 66.2 74% 77 30.09 0.0
21 20:55 Calm 10.00 Mostly Cloudy SCT035 BKN045 BKN050 75.2 66.2 74% 77 30.09 0.0
21 20:35 S 5 10.00 Overcast BKN035 OVC050 75.2 66.2 74% 77 30.09 0.0
21 20:15 SE 3 10.00 Mostly Cloudy BKN035 BKN041 78.8 68 70% 81 30.09 0.0
21 19:55 Calm 10.00 Fair CLR 78.8 68 70% 81 30.09 0.0
21 19:35 N 3 10.00 Fair CLR 80.6 69.8 70% 84 30.09 0.0
21 19:15 N 3 10.00 Fair CLR 80.6 69.8 70% 84 30.08 0.0
21 18:55 N 3 10.00 Fair CLR 80.6 69.8 70% 84 30.08 0.0
21 18:45 N 3 10.00 NULL NULL 80.6 69.8 70% 84 30.08 0.0
21 18:15 N 3 10.00 Fair CLR 80.6 69.8 70% 84 30.08 0.0
21 17:55 NW 5 10.00 Fair CLR 80.6 69.8 70% 84 30.08 0.0
21 17:35 W 5 10.00 Fair CLR 80.6 69.8 70% 84 30.09 0.0
21 17:15 Calm 10.00 Fair CLR 80.6 69.8 70% 84 30.1 0.0
21 16:55 W 3 10.00 Fair CLR 82.4 69.8 66% 86 30.1 0.0
21 16:39 Calm 10.00 NULL NULL 80.6 69.8 70% 84 30.11 0.0
21 15:35 Calm 10.00 NULL NULL 80.6 69.8 70% 84 30.13 0.0
21 15:32 Calm 10.00 NULL NULL 80.6 69.8 70% 84 30.13 0.0
21 14:55 Calm 10.00 Mostly Cloudy BKN032 80.6 69.8 70% 84 30.14 0.0
21 14:43 S 5 10.00 NULL NULL 80.6 69.8 70% 84 30.14 0.0
21 14:23 SE 3 10.00 NULL NULL 78.8 68 70% 81 30.14 0.0
21 13:55 S 3 10.00 NULL NULL 78.8 68 70% 81 30.14 0.0
21 12:53 S 5 10.00 NULL NULL 75.2 66.2 74% 77 30.16 0.0
21 11:55 Calm 10.00 Mostly Cloudy BKN009 71.6 64.4 78% 30.18 0.0
21 11:35 Calm 10.00 Overcast OVC007 69.8 62.6 78% 30.18 0.0
21 11:15 E 3 10.00 NULL NULL 69.8 62.6 78% 30.18 0.0
21 10:55 Calm 10.00 Overcast OVC007 68 62.6 83% 30.18 0.0
21 10:35 Calm 10.00 Overcast OVC005 66.2 62.6 88% 30.18 0.0
21 10:15 NE 3 10.00 Thunderstorm in Vicinity OVC005 66.2 60.8 83% 30.17 0.0
21 09:55 Calm 7.00 Thunderstorm OVC003 66.2 60.8 83% 30.17 0.0
21 09:35 E 5 5.00 Overcast with Haze OVC003 64.4 60.8 88% 30.17 0.0
21 09:15 N 6 2.00 Thunderstorm in Vicinity Haze OVC003 64.4 60.8 88% 30.17 0.0
21 08:55 NE 5 3.00 Fog/Mist OVC003 64.4 60.8 88% 30.17 0.0
21 08:35 NE 5 1.50 Fog/Mist OVC003 64.4 60.8 88% 30.17 0.0
21 08:15 NE 5 1.75 Fog/Mist OVC003 64.4 60.8 88% 30.16 0.0
21 07:55 N 5 1.00 Fog/Mist OVC003 64.4 60.8 88% 30.15 0.0
21 07:35 NE 6 1.00 Fog/Mist OVC003 64.4 60.8 88% 30.15 0.0
21 07:15 Calm 1.25 Fog/Mist OVC003 64.4 60.8 88% 30.15 0.0
21 06:55 NE 5 3.00 Fog/Mist OVC003 64.4 60.8 88% 30.14 0.0
21 06:35 NE 5 4.00 Fog/Mist OVC003 64.4 60.8 88% 30.14 0.0
21 06:15 NE 5 4.00 Fog/Mist OVC003 64.4 60.8 88% 30.14 0.0
21 05:55 NE 5 1.50 Fog/Mist OVC001 64.4 60.8 88% 30.13 0.0
21 05:35 NE 3 1.75 Fog/Mist OVC003 64.4 60.8 88% 30.13 0.0
21 05:15 Calm 5.00 Fog/Mist BKN003 64.4 60.8 88% 30.13 0.0
21 04:55 Calm 5.00 Fog/Mist CLR 62.6 59 88% 30.13 0.0
21 04:35 Calm 5.00 Fog/Mist CLR 62.6 59 88% 30.14 0.0
21 04:15 Calm 7.00 Fair CLR 64.4 60.8 88% 30.14 0.0
21 03:55 Calm 7.00 Fair CLR 64.4 60.8 88% 30.14 0.0
21 03:35 Calm 7.00 Fair CLR 62.6 59 88% 30.14 0.0
21 03:15 Calm 7.00 Fair CLR 64.4 60.8 88% 30.13 0.0
21 02:55 Calm 7.00 Fair CLR 62.6 59 88% 30.13 0.0
21 02:35 Calm 10.00 Fair CLR 64.4 59 83% 30.13 0.0
21 02:15 Calm 10.00 Fair CLR 64.4 59 83% 30.14 0.0
21 01:55 Calm 10.00 Fair CLR 62.6 59 88% 30.13 0.0
21 01:35 Calm 10.00 Fair CLR 64.4 59 83% 30.13 0.0
21 01:15 Calm 10.00 Fair CLR 66.2 62.6 88% 30.13 0.0
21 00:55 Calm 10.00 Fair CLR 66.2 60.8 83% 30.13 0.0
21 00:35 Calm 10.00 Fair CLR 68 62.6 83% 30.13 0.0
21 00:15 Calm 10.00 Fair CLR 68 62.6 83% 30.12 0.0
20 23:55 Calm 10.00 Fair CLR 69.8 62.6 78% 30.12 0.0
20 23:35 NE 3 10.00 Fair CLR 69.8 62.6 78% 30.12 0.0
20 22:55 N 5 10.00 Fair CLR 71.6 64.4 78% 30.12 0.0
20 22:35 NE 3 10.00 Fair CLR 73.4 64.4 74% 30.12 0.0
20 22:15 Calm 10.00 Fair CLR 73.4 64.4 74% 30.12 0.0
20 21:55 Calm 10.00 Fair CLR 73.4 64.4 74% 30.13 0.0
20 21:35 NE 3 10.00 Fair CLR 75.2 64.4 69% 77 30.13 0.0
20 21:15 N 3 10.00 Fair CLR 75.2 66.2 74% 77 30.12 0.0
20 20:55 Calm 10.00 Fair CLR 75.2 66.2 74% 77 30.11 0.0
20 20:35 Calm 10.00 NULL NULL 75.2 66.2 74% 77 30.11 0.0
20 20:15 Calm 10.00 Fair CLR 78.8 68 70% 81 30.1 0.0
20 19:55 Calm 10.00 Fair CLR 80.6 66.2 62% 83 30.09 0.0
20 19:35 Calm 10.00 Fair CLR 80.6 68 66% 83 30.09 0.0
20 19:15 Calm 10.00 Fair CLR 80.6 68 66% 83 30.09 0.0
20 18:55 NW 5 10.00 Fair CLR 82.4 68 62% 85 30.08 0.0
20 18:35 NW 3 10.00 Fair CLR 82.4 68 62% 85 30.08 0.0
20 18:15 Calm 10.00 Fair CLR 82.4 68 62% 85 30.08 0.0
20 17:55 Calm 10.00 Fair CLR 82.4 68 62% 85 30.07 0.0
20 17:35 Calm 10.00 Fair CLR 82.4 68 62% 85 30.08 0.0
20 17:15 SE 3 10.00 Fair CLR 82.4 68 62% 85 30.08 0.0
20 16:55 Calm 10.00 Partly Cloudy SCT075 82.4 68 62% 85 30.08 0.0
20 16:35 Calm 10.00 Partly Cloudy SCT075 82.4 68 62% 85 30.08 0.0
20 16:15 SW 3 10.00 Partly Cloudy SCT050 SCT075 84.2 68 58% 87 30.08 0.0
20 15:55 S 3 10.00 Fair CLR 84.2 68 58% 87 30.08 0.0
20 15:35 S 5 10.00 Fair CLR 82.4 68 62% 85 30.09 0.0
20 15:15 Calm 10.00 Partly Cloudy SCT075 84.2 69.8 62% 88 30.1 0.0
20 14:55 Calm 10.00 Partly Cloudy SCT075 80.6 66.2 62% 83 30.1 0.0
20 14:35 NE 3 10.00 Partly Cloudy SCT046 SCT060 SCT075 82.4 68 62% 85 30.1 0.0
20 14:24 Calm 10.00 NULL NULL 82.4 68 62% 85 30.11 0.0
20 13:55 W 3 10.00 Mostly Cloudy SCT048 BKN055 82.4 68 62% 85 30.11 0.0
20 13:35 S 6 10.00 Mostly Cloudy SCT048 BKN055 82.4 68 62% 85 30.1 0.0
20 13:15 Calm 10.00 Thunderstorm in Vicinity SCT046 82.4 68 62% 85 30.1 0.0
20 12:55 E 3 10.00 Thunderstorm in Vicinity SCT041 SCT050 80.6 68 66% 83 30.1 0.0
20 12:35 SW 5 10.00 Partly Cloudy SCT039 80.6 68 66% 83 30.1 0.0
20 12:15 SW 5 10.00 Partly Cloudy SCT041 SCT049 80.6 66.2 62% 83 30.1 0.0
20 11:55 SW 3 10.00 Partly Cloudy SCT034 SCT042 78.8 66.2 65% 81 30.1 0.0
20 11:35 SE 5 10.00 Partly Cloudy SCT032 78.8 66.2 65% 81 30.1 0.0
20 11:15 SW 5 10.00 Fair CLR 78.8 66.2 65% 81 30.11 0.0
20 10:55 Calm 10.00 Fair CLR 78.8 66.2 65% 81 30.11 0.0
20 10:35 S 6 10.00 Partly Cloudy SCT032 77 66.2 69% 79 30.11 0.0
20 10:15 S 5 10.00 Fair CLR 77 66.2 69% 79 30.11 0.0
20 09:55 Calm 10.00 Fair CLR 75.2 66.2 74% 77 30.11 0.0
20 09:35 Calm 10.00 Fair CLR 75.2 64.4 69% 77 30.11 0.0
20 09:15 Calm 10.00 Fair CLR 73.4 64.4 74% 30.11 0.0
20 08:35 Calm 10.00 Fair CLR 71.6 62.6 73% 30.12 0.0
20 08:15 Calm 10.00 Fair CLR 69.8 62.6 78% 30.12 0.0
20 07:55 Calm 10.00 Fair CLR 68 62.6 83% 30.12 0.0
20 07:35 Calm 10.00 Fair CLR 66.2 60.8 83% 30.11 0.0
20 07:15 Calm 10.00 Fair CLR 62.6 59 88% 30.11 0.0
20 06:55 Calm 10.00 Fair CLR 60.8 57.2 88% 30.11 0.0
20 06:35 Calm 10.00 Fair CLR 57.2 53.6 88% 30.11 0.0
20 06:15 Calm 4.00 Fog/Mist CLR 57.2 55.4 94% 30.11 0.0
20 05:55 Calm 10.00 Fair CLR 55.4 51.8 88% 30.1 0.0
Date Time (cdt) Wind (mph) Vis. (mi.) Weather Sky Cond. Air Dwpt Max. Min. Relative Humidity Wind Chill (°F) Heat Index (°F) altimeter (in) sea level (mb) 1 hr 3 hr 6 hr
6 hour
Temperature (ºF) Pressure Precipitation (in)